Flag for Morocco Weather past 2 weeks in Casablanca, Morocco

Now
57 °F

Overcast.


Feels Like: N/A
Forecast: 50 / 63 °F
Wind: N/A

Location: Casablanca Airport

Current Time: Dec 20, 2014 at 1:21:14 PM

Latest Report: Dec 20, 2014 at 1:00 PM


Visibility: 4 mi

Pressure: 30.39 "Hg

Humidity: 88%

Dew point: 54 °F

Location of CasablancaLocation

Historic Weather in Casablanca — Graph

°F

Casablanca temperature yesterday

Maximum temperature yesterday: 64 °F (at 12:00 PM)
Minimum temperature yesterday: 50 °F (at 5:00 AM)
Average temperature yesterday: 56 °F

Past Weeks' High & Low Weather Summary

 TemperatureHumidityPressure
High68 °F (Dec 12, 12:00 PM)100% (Dec 6, 12:00 AM)30.42 "Hg (Dec 6, 12:00 AM)
Low46 °F (Dec 9, 6:00 AM)46% (Dec 13, 1:00 PM)29.89 "Hg (Dec 13, 2:00 PM)
Average58 °F86%30.23 "Hg
* Reported Dec 5 12:00 Noon — Dec 20 12:00 Noon, Casablanca, Weather by CustomWeather, © 2014

Note: Actual official high and low records may vary slightly from our data, if they occured in-between our weather recording intervals... More about our weather records

Advertising

Casablanca weather history for previous 24 hours

 ConditionsComfort  
Time TempWeatherWind HumidityBarometerVisibility
12:00 PM
Dec 20
57 °FOvercast.N/A82%30.42 "Hg4 mi
11:00 AM54 °FFog.N/A88%30.42 "Hg2 mi
10:00 AM54 °FFog.N/A88%30.42 "Hg2 mi
9:00 AM52 °FFog.N/A94%30.39 "Hg2 mi
8:00 AM52 °FFog.N/A94%30.39 "Hg2 mi
7:00 AM52 °FScattered clouds.N/A94%30.36 "Hg5 mi
6:00 AM52 °FPassing clouds.N/A94%30.36 "Hg5 mi
5:00 AM52 °FPassing clouds.N/A94%30.39 "Hg5 mi
12:00 AM54 °FPassing clouds.N/A94%30.39 "Hg5 mi
11:00 PM
Dec 19
54 °FPassing clouds.N/A88%30.39 "Hg5 mi
10:00 PM55 °FPassing clouds.N/A88%30.39 "Hg5 mi
9:00 PM55 °FPassing clouds.N/A88%30.39 "Hg5 mi
8:00 PM55 °FPassing clouds.N/A88%30.39 "Hg5 mi
7:00 PM57 °FPassing clouds.N/A82%30.36 "Hg5 mi
6:00 PM59 °FPassing clouds.N/A77%30.36 "Hg5 mi
5:00 PM59 °FPassing clouds.N/A72%30.36 "HgN/A
4:00 PM61 °FScattered clouds.N/A72%30.33 "HgN/A
Weather by CustomWeather, © 2014

See weather overviewHow to use our weather pages